Location: Unspecified
(0.0000°N, 0.0000°E)
Time: 01:18:20
(UTC+00:00)

PCSat - Pass Details

Date: 08 December 2017
Orbit: 784 x 796 km, 67.1° (Epoch: 21 July)

Event Time Altitude Azimuth Distance (km) Brightness Sun altitude
Rises 18:09:00 0° 184° (S) 3,288 13.2 -3.9°
Reaches altitude 10° 18:11:36 10° 175° (S) 2,355 12.3 -4.5°
Maximum altitude 18:16:31 36° 109° (ESE) 1,235 10.3 -5.6°
Drops below altitude 10° 18:21:24 10° 44° (NE) 2,340 11.4 -6.7°
Enters shadow 18:22:45 - 39° (NE) 2,817 11.9 -7.1°
